Location: Great Malvern
(52.1167°N, 2.3167°W)
Time: 11:34:13
(UTC+00:00)

CREW DRAGON DEMO-1 DEB - Pass Details

Date: 18 September 2020
Orbit: 361 x 362 km, 51.6° (Epoch: 31 October)

Event Time Altitude Azimuth Distance (km) Brightness Sun altitude
Rises 20:16:33 0° 276° (W) 2,198 8.0 -18.5°
Reaches altitude 10° 20:18:35 10° 275° (W) 1,351 6.6 -18.8°
Enters shadow 20:21:21 66° 233° (SW) 400 2.9 -19.2°
